STARLINK-31844, 60583

Orbit data source: Space-Track

STARLINK-31844, 60583 is a payload satellite owned by SpaceX/Seattle (US) in LEO that was launched on Tue, 20 Aug 2024 UTC via an FALCON 9 launch vehicle from the Air Force Eastern Test Range (AFETR). Payload-class satellites include a variety of spacecraft equipped with specific instruments for various scientific and technological missions. These include communications satellites like Starlink; space stations such as the ISS; scientific satellites like the Hubble; Earth observation satellites from companies like Planet Labs, Umbra, and HawkEye 360; GPS; miniature CubeSats for education and research; and military/defense satellites.

Loading next visibility...
Identifier
60583, 2024-150A
Orbit
LEO
Country
Flag of USUS
Related business
Manufacturer
SpaceX/Seattle
Mission
Operational Commercial Communications
Bus & Motor
STARLINK V2M, Unknown motor
Mass
730 kg wet, ~700 kg dry
Launch date (UTC)
2024-08-20 (2 years ago)
Launch vehicle
FALCON 9
Launch site
Air Force Eastern Test Range (AFETR)
Object type
Payload
Rocket body
Debris
Shape & HBR
Box + 2 Pan, 17.7 m
Radar Cross Section
33.884 m², Large (>1 m²)

Expand to show TLE details & history
Last TLE update: 11 hours ago

TLE from 11 hours ago
0 STARLINK-31844
1 60583U 24150A   26171.42625258  .00000226  00000-0  19038-4 0  9990
2 60583  53.1606 188.9194 0001010  71.4236 288.6875 15.31693760103784
Epoch: 2026-06-20T10:13Z
TLE epoch observation values (Epoch: 2026-06-20T10:13:48.222Z)
Latitude
-0.00005°
Longitude
126.82739°
Altitude
471.437 km
Speed
7.632 km/s
True Right ascension
12h 35m 40s
True Declination
0° 00' 00"
Sunlit
Object was in daylight at epoch
Visualization orbit readout
Latitude
Unknown
Longitude
Unknown
Altitude
Unknown
Speed
Unknown
Apparent Right ascension
Unknown
Apparent Declination
Unknown
Sunlit
N/A
Visualization observer readout
Local Sidereal Time
08:32:52
Azimuth
Unknown
Elevation
Unknown
Doppler factor
Unknown
Orbital elements
Apogee altitude
471.707 km
Perigee altitude
470.323 km
Semi-major axis
6,849.152 km
Eccentricity
0.0001
Inclination
53.1606°
RAAN
188.9194°
Arg. of periapsis
71.4236°
True anomaly
288.67654°
Mean anomaly
288.6875°
Eccentric anomaly
288.68202°
Mean motion
3.82902 °/min
Orbital period
94.02 mins
BSTAR
0.000019038
Loading maneuver chart data...
Computing Atmospheric mass density...
Loading historical data...
Loading historical data...
Loading historical data...
Loading historical data...
Loading historical data...
Loading historical data...
Loading historical data...

Documentation

Showing up to 5 results
|